Regional Weather Roundup
Issued by NWS

Home | Current Version | Previous Version | Graphics & Text | Print | Product List | Glossary On
Versions: 1 2 3 4 5 6 7 8 9 10 11 12 13 14 15 16 17 18 19 20 21 22 23 24 25 26 27 28 29 30 31 32 33 34 35 36 37 38 39 40 41 42 43 44 45 46 47 48 49 50
000
ASUS43 KFSD 092010
RWRSD

WEATHER ROUNDUP FOR SOUTH DAKOTA
NATIONAL WEATHER SERVICE SIOUX FALLS SD
300 PM CDT WED JUL 09 2014

NOTE: "FAIR" INDICATES FEW OR NO CLOUDS BELOW 12,000 FEET WITH NO
SIGNIFICANT WEATHER AND/OR OBSTRUCTIONS TO VISIBILITY.


SDZ001>005-009-010-012>017-092100-
NORTHWEST AND NORTH CENTRAL SOUTH DAKOTA

CITY           SKY/WX    TMP DP  RH WIND       PRES   REMARKS
BUFFALO          N/A     82  51  34 SE10      29.94F
FAITH            N/A     79  53  40 E8        30.01F
MOBRIDGE       SUNNY     79  54  41 VRB5      29.99F HAZE
$$

SDZ012>016-024>037-041>051-057-063-072>074-092100-
SOUTHWEST AND SOUTH CENTRAL SOUTH DAKOTA

CITY           SKY/WX    TMP DP  RH WIND       PRES   REMARKS
RAPID CTY ARPT SUNNY     78  54  43 E12G22    30.03F
PIERRE         MOSUNNY   82  51  34 VRB6      29.98F
CUSTER         SUNNY     72  56  57 E9        30.13F
ELLSWORTH AFB  MOSUNNY   78  55  44 SE9G20    30.02F
PHILIP         CLOUDY    80  50  34 SE15      30.00F
PINE RIDGE     MOSUNNY   83  61  47 E16G23    29.98F
WINNER         MOCLDY    77  54  44 S14       30.02F
$$

SDZ004>011-016>023-039-040-092100-
NORTHEAST SOUTH DAKOTA

CITY           SKY/WX    TMP DP  RH WIND       PRES   REMARKS
ABERDEEN       MOSUNNY   76  56  49 VRB5      30.02F
WATERTOWN      PTSUNNY   77  53  43 VRB7      30.03S
SISSETON         N/A     76  54  46 NE8       30.01F
$$

SDZ017-020-022-023-036>040-048>070-092100-
SOUTHEAST SOUTH DAKOTA

CITY           SKY/WX    TMP DP  RH WIND       PRES   REMARKS
SIOUX FALLS    MOSUNNY   81  57  43 NW6       30.02F
HURON          SUNNY     81  54  39 VRB5      30.00F HAZE
CHAMBERLAIN    SUNNY     82  54  38 S3        30.00F
MITCHELL       SUNNY     82  55  39 E6        30.00F HAZE
YANKTON        SUNNY     81  57  44 SW9       30.02F
$$

ABBREVIATIONS USED IN REMARKS
   TC - TEMPERATURE IN CELSIUS
  WCI - WIND CHILL INDEX
   HX - HEAT INDEX
  VSB - VISIBILITY




USA.gov is the U.S. government's official web portal to all federal, state and local government web resources and services.